sat.trackr.live / text

‹ back to catalog

STARLINK-37908

NORAD 69688 · 2026-145M

PAYLOAD ACTIVE UNKNOWN

§ Identity

Operator
Country
US
Launch date
2026-06-25
Launch site
AFWTR
Launch vehicle
Mass (kg)
RCS (m²)

Purposes: comms

External: N2YO · Heavens-Above · Gunter

§ Orbital elements

Epoch: 2026-09-20T01:03:56.768256Z

Period
93.91 min
Inclination
97.2806°
Eccentricity
0.0003196
Mean motion
15.33429741 rev/d
Perigee alt
463.4 km
Apogee alt
467.8 km
Semi-major
6,843.7 km
B*
6.7667e-4
RAAN
109.7232°
Arg perigee
74.1620°
Mean anomaly
285.9975°
Rev number
1,347

§ Raw data

STARLINK-379081 69688U 26145M   26263.04440704  .00021826  00000+0  67667-3 0  99902 69688  97.2806 109.7232 0003196  74.1620 285.9975 15.33429741 13473

JSON: /api/v1/satellites/69688 · /tle

For live sub-satellite position, see the globe view (requires WebGL).

§ Visibility from observer

Set your observer location to see the next 7 days of passes ≥ 10°. The values pass through the URL so the page stays shareable.

No JS? Fill the form by hand. The geolocation button needs JavaScript.